Regional Weather Roundup
Issued by NWS

Home | Current Version | Previous Version | Text Only | Print | Product List | Glossary On
Versions: 1 2 3 4 5 6 7 8 9 10 11 12 13 14 15 16 17 18 19 20 21 22 23 24 25 26 27 28 29 30 31 32 33 34 35 36 37 38 39 40 41 42 43 44 45 46 47 48 49 50
000
ASUS43 KOAX 280110
RWRNE

WEATHER ROUNDUP FOR NEBRASKA
NATIONAL WEATHER SERVICE OMAHA NE
700 PM CST FRI FEB 27 2015

NOTES: SATELLITE DATA IS BEING USED TO AUGMENT CLOUD COVER ABOVE
       12000 FEET.
       "FAIR" INDICATES FEW OR NO CLOUDS BELOW 12,000 FEET WITH NO
       SIGNIFICANT WEATHER AND/OR OBSTRUCTIONS TO VISIBILITY.

  * THESE STATIONS DO NOT REPORT WEATHER SUCH AS RAIN...SNOW OR FOG.

NEZ001>004-019>022-054>056-280200-
NEBRASKA PANHANDLE

CITY           SKY/WX    TMP DP  RH WIND       PRES   REMARKS
SCOTTSBLUFF    CLOUDY    20   9  62 S14       30.00R WCI   7
ALLIANCE       CLOUDY    18   8  65 S18       30.03R WCI   2
CHADRON        MOCLDY    20   9  62 S15       30.03S WCI   6
KIMBALL        LGT SNOW  13  10  87 S15       29.94S WCI  -2
SIDNEY         CLOUDY    15   6  67 S20       30.04R WCI  -2
$$

NEZ057>060-069>072-079>082-280200-
SOUTHWEST NEBRASKA

CITY           SKY/WX    TMP DP  RH WIND       PRES   REMARKS
NORTH PLATTE   CLOUDY    19   5  54 S12       30.23R WCI   7
IMPERIAL         N/A     17   6  62 S17       30.17S WCI   1
LEXINGTON      CLEAR     18  -2  40 S10       30.30R WCI   7
MCCOOK         CLOUDY    20   7  57 S12       30.27S WCI   8
OGALLALA       CLOUDY    18   9  65 S15       30.16S WCI   4
$$

NEZ005>010-023>029-035>040-094-280200-
NORTH CENTRAL NEBRASKA

CITY           SKY/WX    TMP DP  RH WIND       PRES   REMARKS
VALENTINE      CLEAR     22   3  44 S13       30.18S WCI  10
AINSWORTH      CLEAR     19  -2  40 SE10      30.21S WCI   7
BROKEN BOW     CLEAR     18  -3  39 S8        30.27R WCI   8
O`NEILL        CLEAR     18  -3  40 S8        30.32R WCI   7
ORD            CLEAR     18  -5  36 S7        30.32S WCI   9
THEDFORD       CLEAR     20   6  54 S13       30.20R WCI   7
$$

NEZ041-046>049-061>064-073>077-083>087-280200-
SOUTH CENTRAL NEBRASKA

CITY           SKY/WX    TMP DP  RH WIND       PRES   REMARKS
GRAND ISLAND   PTCLDY    17  -2  43 S10       30.39S WCI   5
AURORA         CLEAR     17  -1  44 S9        30.40R WCI   6
HASTINGS       FAIR      16  -3  43 S7        30.38R WCI   6
HEBRON         CLEAR     16   0  50 S6        30.46S WCI   7
HOLDREGE       MOCLDY    16  -5  39 SE8       30.33R WCI   5
KEARNEY *      CLEAR     16  -6  38 S13       30.35R WCI   2
YORK           MOCLDY    18   0  45 S7        30.42S WCI   8
$$

NEZ011>018-030>034-042>045-280200-
NORTHEAST NEBRASKA

CITY           SKY/WX    TMP DP  RH WIND       PRES   REMARKS
NORFOLK        CLEAR     16   2  54 SE8       30.41R WCI   5
ALBION         CLEAR     16  -3  42 SE8       30.38R WCI   5
BLAIR          CLEAR     16   2  55 S5        30.48S WCI   9
COLUMBUS *     CLEAR     16  -6  38 S8        30.45R WCI   5
FREMONT        CLEAR     17   4  56 S3        30.48S
TEKAMAH        CLEAR     14   6  70 E8        30.51S WCI   3
WAYNE          CLEAR     13   3  64 SE9       30.45R WCI   1
$$

NEZ050>053-065>068-078-088>093-280200-
SOUTHEAST NEBRASKA

CITY           SKY/WX    TMP DP  RH WIND       PRES   REMARKS
LINCOLN        CLEAR     15   1  53 S7        30.49S WCI   5
OMAHA EPPLEY   PTCLDY    16   4  59 SE10      30.53R WCI   4
BEATRICE       CLEAR     15   1  52 S7        30.48S WCI   6
FALLS CITY     PTCLDY    15  -2  46 SE5       30.54R WCI   8
NEBRASKA CITY  CLEAR     14  -6  41 S3        30.51S
PLATTSMOUTH    PTCLDY    15   0  52 CALM      30.51R
$$

NEZ044-045-051>053-067-280200-
OMAHA AREA

CITY           SKY/WX    TMP DP  RH WIND       PRES   REMARKS
OMAHA EPPLEY   PTCLDY    16   4  59 SE10      30.53R WCI   4
BLAIR          CLEAR     16   2  55 S5        30.48S WCI   9
FREMONT        CLEAR     17   4  56 S3        30.48S
MILLARD        CLEAR     18   2  50 S5        30.51S WCI  11
OFFUTT AFB     CLEAR     13   2  63 E5        30.51S WCI   5
PLATTSMOUTH    PTCLDY    15   0  52 CALM      30.51R
WAHOO          FAIR      13   2  63 SE8       30.48S WCI   1
$$


USA.gov is the U.S. government's official web portal to all federal, state and local government web resources and services.